Weather History for KMCB - December, 2012

Change the Weather History Date:

Tuesday, December 11, 2012

  Actual Average Record
Temperature  
Mean Temperature 40 °F -  
Max Temperature 46 °F 61 °F 81 °F (1949)
Min Temperature 34 °F 39 °F 20 °F (1957)
Degree Days  
Heating Degree Days 25    
Moisture  
Dew Point 32 °F    
Average Humidity 72    
Maximum Humidity 86    
Minimum Humidity 54    
Precipitation  
Precipitation 0.00 in - - ()
Sea Level Pressure  
Sea Level Pressure 30.11 in    
Wind  
Wind Speed 7 mph (North)    
Max Wind Speed 13 mph    
Max Gust Speed 18 mph    
Visibility 10 miles    
Events      
Averages and records for this station are not official NWS values.
T = Trace of Precipitation, MM = Missing Value Source: NWS Daily Summary

Daily Weather History Graph

Daily Weather History Graph

Search for Another Location

Airport or City:

Trip Planner

Search our weather history database for the weather conditions in past years. The results will help you decide how hot, cold, wet, or windy it might be!

Date:

Astronomy

Dec. 11, 2012 Rise Set
Actual Time 6:50 AM CST 5:00 PM CST
Civil Twilight 6:24 AM CST 5:26 PM CST
Nautical Twilight 5:53 AM CST 5:57 PM CST
Astronomical Twilight 5:24 AM CST 6:26 PM CST
Moon 4:49 AM CST (12/11) 3:36 PM CST (12/11)
Length of Visible Light 11h 02m
Length of Day
10h 09m
Waning Crescent, 4% of the Moon is Illuminated
Dec 11
Waning Crescent
Dec 13
New
Dec 19
First Quarter
Dec 28
Full
Jan 4
Last Quarter

Hourly Weather History & Observations

Time (CST) Temp. Windchill Dew Point Humidity Pressure Visibility Wind Dir Wind Speed Gust Speed Precip Events Conditions
12:53 AM 39.9 °F 34.5 °F 35.1 °F 83% 30.02 in 10.0 mi North 8.1 mph - N/A   Clear
1:53 AM 39.0 °F 31.4 °F 35.1 °F 86% 30.02 in 10.0 mi North 12.7 mph - N/A   Clear
2:53 AM 37.9 °F 32.1 °F 34.0 °F 86% 30.03 in 10.0 mi North 8.1 mph 18.4 mph N/A   Partly Cloudy
3:53 AM 37.0 °F 32.4 °F 32.0 °F 82% 30.05 in 10.0 mi North 5.8 mph - N/A   Clear
4:53 AM 36.0 °F 31.1 °F 32.0 °F 86% 30.05 in 10.0 mi North 5.8 mph - N/A   Clear
5:53 AM 35.1 °F 28.6 °F 30.0 °F 82% 30.07 in 10.0 mi North 8.1 mph - N/A   Clear
6:53 AM 34.0 °F 28.0 °F 28.0 °F 79% 30.09 in 10.0 mi North 6.9 mph - N/A   Clear
7:53 AM 34.0 °F 27.2 °F 28.0 °F 79% 30.10 in 10.0 mi North 8.1 mph - N/A   Clear
8:53 AM 34.0 °F 28.8 °F 28.0 °F 79% 30.14 in 10.0 mi North 5.8 mph - N/A   Partly Cloudy
9:53 AM 36.0 °F 30.3 °F 28.9 °F 76% 30.15 in 10.0 mi NNE 6.9 mph - N/A   Clear
10:53 AM 39.0 °F 35.7 °F 28.9 °F 67% 30.14 in 10.0 mi North 4.6 mph - N/A   Clear
11:53 AM 43.0 °F 38.8 °F 30.9 °F 62% 30.12 in 10.0 mi North 6.9 mph - N/A   Clear
12:53 PM 44.1 °F 40.1 °F 30.0 °F 58% 30.09 in 10.0 mi NNE 6.9 mph - N/A   Clear
1:53 PM 46.0 °F 41.9 °F 30.9 °F 56% 30.08 in 10.0 mi NNE 8.1 mph - N/A   Clear
2:53 PM 46.0 °F 42.5 °F 30.0 °F 54% 30.09 in 10.0 mi NNE 6.9 mph - N/A   Clear
3:53 PM 45.0 °F 42.6 °F 30.9 °F 58% 30.10 in 10.0 mi NNE 4.6 mph - N/A   Clear
4:53 PM 45.0 °F 41.8 °F 30.9 °F 58% 30.11 in 10.0 mi NNE 5.8 mph - N/A   Clear
5:53 PM 43.0 °F - 32.0 °F 65% 30.13 in 10.0 mi Calm Calm - N/A   Clear
6:53 PM 42.1 °F - 34.0 °F 73% 30.15 in 10.0 mi Calm Calm - N/A   Clear
7:53 PM 42.1 °F 40.2 °F 34.0 °F 73% 30.16 in 10.0 mi NNE 3.5 mph - N/A   Clear
8:53 PM 42.1 °F 39.2 °F 33.1 °F 70% 30.17 in 10.0 mi NNE 4.6 mph - N/A   Clear
9:53 PM 41.0 °F 39.0 °F 34.0 °F 76% 30.18 in 10.0 mi North 3.5 mph - N/A   Clear
10:53 PM 42.1 °F 38.4 °F 34.0 °F 73% 30.19 in 10.0 mi North 5.8 mph - N/A   Clear